Miscellaneous Local Product
Issued by NWS Hastings, NE

Home | Current Version | Previous Version | Graphics & Text | Print | Product List | Glossary On
Versions: 1 2 3 4 5 6 7 8 9 10 11 12 13 14 15 16 17 18 19 20 21 22 23 24 25 26 27 28 29 30 31 32 33 34 35 36 37 38 39 40 41 42 43 44 45 46 47 48 49 50
000
AXUS43 KGID 251902
MISGRI

GID CWA HOURLY WEATHER ROUNDUP
NATIONAL WEATHER SERVICE HASTINGS NE
100 PM CST SUN JAN 25 2015

NOTE: "FAIR" INDICATES FEW OR NO CLOUDS BELOW 12,000 FEET WITH NO
SIGNIFICANT WEATHER AND/OR OBSTRUCTIONS TO VISIBILITY.

...SOUTH CENTRAL NEBRASKA...

CITY           SKY/WX    TMP DP  RH WIND       PRES   REMARKS
GRAND ISLAND   CLOUDY    39  32  76 N14       30.05R WCI  31
HASTINGS       CLOUDY    42  29  59 N23G31    30.04R
KEARNEY        CLOUDY    45  27  49 N23       30.06R
ORD            CLOUDY    40  30  67 N14       30.05S WCI  32
YORK           CLOUDY    39  32  75 N14       30.02S WCI  31
AURORA         CLOUDY    39  32  76 N21G28    30.04R WCI  29
LEXINGTON      MOSUNNY   45  29  52 N17G24    30.06F
HOLDREGE       SUNNY     45  28  51 N18G26    30.06R
HEBRON         CLOUDY    43  28  56 N18G32    30.02R

...NEBRASKA PANHANDLE...

CITY           SKY/WX    TMP DP  RH WIND       PRES   REMARKS
CHADRON        PTSUNNY   47  34  60 W20       30.06F
ALLIANCE       SUNNY     45  35  68 W18       30.07F
SCOTTSBLUFF    LGT RAIN  45  35  68 NW12      30.10F
SIDNEY         MOSUNNY   50  31  48 NW20G31   30.10F

...WESTERN AND NORTH CENTRAL NEBRASKA...

CITY           SKY/WX    TMP DP  RH WIND       PRES   REMARKS
VALENTINE      CLOUDY    40  29  64 NW10      30.06F WCI  33
AINSWORTH      CLOUDY    37  29  73 N15       30.07S WCI  28
ONEILL         LGT RAIN  38  36  92 NW14      30.05R WCI  30
BROKEN BOW     PTSUNNY   43  29  57 NW18      30.06R
IMPERIAL       SUNNY     52  21  29 NW24G31   30.07F
NORTH PLATTE   SUNNY     47  24  40 NW20G28   30.08F
MCCOOK         SUNNY     50  21  32 NW25G32   30.09F

...EASTERN NEBRASKA...

CITY           SKY/WX    TMP DP  RH WIND       PRES   REMARKS
NORFOLK        CLOUDY    37  32  82 N14       30.03R WCI  28
SO SIOUX CITY  CLOUDY    38  34  85 N12       30.02R WCI  30
TEKAMAH        CLOUDY    42  34  73 N23       30.01R
COLUMBUS       CLOUDY    37  28  70 N15G22    30.04S WCI  28
ALBION         CLOUDY    38  31  74 N10       30.03F WCI  31
OMAHA EPPLEY   CLOUDY    40  33  76 N20       29.98R WCI  30
OFFUTT AFB     CLOUDY    40  32  75 N14G24    29.97R WCI  32
MILLARD        CLOUDY    39  33  77 N9G17     29.99R WCI  33
LINCOLN        CLOUDY    39  31  72 N22G29    30.02R WCI  29
NEBRASKA CITY  CLOUDY    37  31  78 N20       29.95R WCI  27
BEATRICE       CLOUDY    40  32  71 N18G31    29.99R WCI  31
FALLS CITY     CLOUDY    38  32  79 N17G26    29.93R WCI  28

...NORTHERN KANSAS...

CITY           SKY/WX    TMP DP  RH WIND       PRES   REMARKS
GOODLAND       MOSUNNY   53  22  29 N28G37    30.10F
HILL CITY      SUNNY     50  25  37 N24G33    30.10S
NORTON         PTCLDY    48  21  34 NW22      30.08
PHILLIPSBURG   MOSUNNY   52  27  37 NW18G30   30.07F
SMITH CENTER   PTSUNNY   46  28  49 NW22G28   30.06S
BELOIT         CLOUDY    46  28  49 NW25G32   30.03S
HAYS           SUNNY     48  25  40 N23G35    30.09R
RUSSELL        MOSUNNY   49  28  44 N30G36    30.05F
CONCORDIA      CLOUDY    43  32  65 N22G36    30.02R
SALINA         CLOUDY    47  31  53 N29G38    30.01S
TOPEKA         CLOUDY    40  32  73 N18G32    29.92R WCI  31



USA.gov is the U.S. government's official web portal to all federal, state and local government web resources and services.